Find Starlink 35207

NORAD ID: 65500 Int'l Des: 2025-198 Owner: SPXS Country: US Constellation: starlink operational
LEOCIRCULAR

Live-Position

3D-Globus wird geladen...

Über Starlink 35207

Beschreibung wird geladen...

Nächste Überflüge

Passes for default location (London). Set your location on the main map for personalized predictions.

Höhenverlauf

Loading altitude history...

Zweizeiliger Elementsatz

1 65500U 25198J 26106.67296142 .00006405 00000-0 22824-3 0 9999
2 65500 53.1583 94.6964 0002240 82.7776 277.3479 15.30194158 34436
Epoch: 16. Apr. 2026 • Age: 17 hours

Aktueller Status

Höhe 481.4 km
Geschwindigkeit 7.62 km/s
Subsatellitenpunkt -20.42°S, 90.52°E
Startdatum 5. Sept. 2025
Alter 0.6 years
Typ internet

Technische Details

Klassifizierung Payload
Masse 575.00 kg
Trockenmasse 530.00 kg
Gesamtmasse 575.00 kg
Länge 0.30 m
Durchmesser 4.10 m
Spannweite 29.00 m
Form Box + pan
Hersteller SPXS
Bus-Typ Starlink V2MO
Phasenstatus In Orbit
Besitzer/Staat SPXS/US

Most Searched